| time (UTC) | temp F | wind direction | speed MPH | gust MPH | rain 1hr in | rain 24hr in | rain mn in | humidity % | barometer mb |
| 20260503024627 | 68 | 348 | 3.0 | 8.0 | 0.00 | 0.00 | 0.00 | 52 | 1012.9 |
| 20260503023606 | 69 | 343 | 3.0 | 8.0 | 0.00 | 0.00 | 0.00 | 52 | 1012.8 |
| 20260503022624 | 69 | 343 | 3.0 | 7.0 | 0.00 | 0.00 | 0.00 | 51 | 1012.8 |
| 20260503021602 | 70 | 329 | 3.0 | 7.0 | 0.00 | 0.00 | 0.00 | 49 | 1012.7 |
| 20260503020600 | 70 | 334 | 4.0 | 9.0 | 0.00 | 0.00 | 0.00 | 48 | 1012.8 |
| 20260503015558 | 70 | 307 | 4.0 | 7.0 | 0.00 | 0.00 | 0.00 | 49 | 1012.7 |
| 20260503014556 | 70 | 346 | 4.0 | 7.0 | 0.00 | 0.00 | 0.00 | 50 | 1012.8 |
| 20260503013615 | 70 | 354 | 3.0 | 6.0 | 0.00 | 0.00 | 0.00 | 49 | 1012.8 |
| 20260503012553 | 70 | 2 | 5.0 | 9.0 | 0.00 | 0.00 | 0.00 | 49 | 1012.9 |
| 20260503011552 | 70 | 353 | 4.0 | 8.0 | 0.00 | 0.00 | 0.00 | 49 | 1013.0 |
| 20260503010550 | 71 | 355 | 3.0 | 6.0 | 0.00 | 0.00 | 0.00 | 49 | 1012.9 |
| 20260503005548 | 71 | 4 | 4.0 | 6.0 | 0.00 | 0.00 | 0.00 | 49 | 1013.0 |
| 20260503004546 | 71 | 1 | 4.0 | 7.0 | 0.00 | 0.00 | 0.00 | 49 | 1013.2 |
| 20260503003545 | 71 | 356 | 3.0 | 6.0 | 0.00 | 0.00 | 0.00 | 49 | 1013.3 |
| 20260503002543 | 71 | 346 | 3.0 | 8.0 | 0.00 | 0.00 | 0.00 | 49 | 1013.3 |
| 20260503001541 | 71 | 347 | 4.0 | 7.0 | 0.00 | 0.00 | 0.00 | 49 | 1013.3 |
| 20260503000540 | 71 | 346 | 5.0 | 10.0 | 0.00 | 0.00 | 0.00 | 49 | 1013.3 |
| 20260502235538 | 71 | 353 | 6.0 | 13.0 | 0.00 | 0.00 | 0.00 | 48 | 1013.3 |
| 20260502234617 | 71 | 345 | 6.0 | 13.0 | 0.00 | 0.00 | 0.00 | 47 | 1013.4 |
| 20260502233534 | 71 | 4 | 7.0 | 13.0 | 0.00 | 0.00 | 0.00 | 46 | 1013.7 |
| 20260502232536 | 71 | 13 | 6.0 | 10.0 | 0.00 | 0.00 | 0.00 | 48 | 1013.7 |
| 20260502231531 | 71 | 342 | 4.0 | 8.0 | 0.00 | 0.00 | 0.00 | 50 | 1014.0 |
| 20260502230550 | 70 | 5 | 5.0 | 9.0 | 0.00 | 0.00 | 0.00 | 51 | 1014.0 |
| 20260502225528 | 70 | 357 | 6.0 | 14.0 | 0.00 | 0.00 | 0.00 | 51 | 1014.2 |
| 20260502224526 | 70 | 351 | 4.0 | 9.0 | 0.00 | 0.00 | 0.00 | 54 | 1014.4 |
| 20260502223544 | 70 | 354 | 6.0 | 8.0 | 0.00 | 0.00 | 0.00 | 54 | 1014.5 |
| 20260502222522 | 69 | 356 | 4.0 | 7.0 | 0.00 | 0.00 | 0.00 | 55 | 1014.6 |
| 20260502221521 | 69 | 345 | 4.0 | 10.0 | 0.00 | 0.00 | 0.00 | 56 | 1014.7 |
| 20260502220540 | 69 | 358 | 4.0 | 7.0 | 0.00 | 0.00 | 0.00 | 56 | 1014.8 |
| 20260502215517 | 69 | 5 | 4.0 | 13.0 | 0.00 | 0.00 | 0.00 | 55 | 1014.8 |
| 20260502214616 | 69 | 345 | 5.0 | 8.0 | 0.00 | 0.00 | 0.00 | 54 | 1015.0 |
| 20260502213614 | 69 | 338 | 5.0 | 11.0 | 0.00 | 0.00 | 0.00 | 56 | 1015.1 |
| 20260502212612 | 69 | 350 | 5.0 | 11.0 | 0.00 | 0.00 | 0.00 | 57 | 1015.1 |
| 20260502211611 | 68 | 7 | 5.0 | 9.0 | 0.00 | 0.00 | 0.00 | 59 | 1015.3 |
| 20260502210609 | 68 | 35 | 4.0 | 11.0 | 0.00 | 0.00 | 0.00 | 61 | 1015.2 |
| 20260502205607 | 68 | 352 | 6.0 | 11.0 | 0.00 | 0.00 | 0.00 | 62 | 1015.4 |
| 20260502204605 | 67 | 352 | 3.0 | 6.0 | 0.00 | 0.00 | 0.00 | 64 | 1015.6 |
| 20260502203603 | 66 | 4 | 2.0 | 8.0 | 0.00 | 0.00 | 0.00 | 65 | 1015.7 |
| 20260502202601 | 66 | 25 | 3.0 | 8.0 | 0.00 | 0.00 | 0.00 | 66 | 1015.7 |
| 20260502201600 | 65 | 355 | 3.0 | 9.0 | 0.00 | 0.00 | 0.00 | 67 | 1015.7 |
| 20260502200619 | 65 | 12 | 3.0 | 7.0 | 0.00 | 0.00 | 0.00 | 67 | 1015.8 |
| 20260502195617 | 64 | 340 | 3.0 | 8.0 | 0.00 | 0.00 | 0.00 | 68 | 1015.9 |
| 20260502194555 | 64 | 11 | 4.0 | 8.0 | 0.00 | 0.00 | 0.00 | 69 | 1016.0 |
| 20260502193553 | 63 | 347 | 1.0 | 4.0 | 0.00 | 0.00 | 0.00 | 69 | 1016.1 |
| 20260502192551 | 63 | 11 | 4.0 | 8.0 | 0.00 | 0.00 | 0.00 | 69 | 1016.2 |
| 20260502191549 | 62 | 353 | 3.0 | 7.0 | 0.00 | 0.00 | 0.00 | 70 | 1016.3 |
| 20260502190548 | 62 | 3 | 2.0 | 7.0 | 0.00 | 0.00 | 0.00 | 71 | 1016.4 |
| 20260502185546 | 62 | 31 | 3.0 | 7.0 | 0.00 | 0.00 | 0.00 | 72 | 1016.7 |
| 20260502184545 | 61 | 356 | 2.0 | 4.0 | 0.00 | 0.00 | 0.00 | 73 | 1016.6 |
| 20260502183543 | 61 | 2 | 3.0 | 7.0 | 0.00 | 0.00 | 0.00 | 72 | 1016.8 |
| 20260502182642 | 60 | 3 | 1.0 | 4.0 | 0.00 | 0.00 | 0.00 | 74 | 1016.9 |
| 20260502181559 | 60 | 337 | 1.0 | 7.0 | 0.00 | 0.00 | 0.00 | 74 | 1017.1 |
| 20260502180538 | 59 | 54 | 1.0 | 4.0 | 0.00 | 0.00 | 0.00 | 74 | 1017.0 |
| 20260502163522 | 57 | 342 | 1.0 | 2.0 | 0.00 | 0.00 | 0.00 | 79 | 1017.0 |
| 20260502162521 | 57 | 295 | 0.0 | 1.0 | 0.00 | 0.00 | 0.00 | 79 | 1017.1 |
| 20260502161519 | 57 | 307 | 0.0 | 1.0 | 0.00 | 0.00 | 0.00 | 78 | 1017.0 |
| 20260502160537 | 57 | 169 | 0.0 | 1.0 | 0.00 | 0.00 | 0.00 | 81 | 1017.2 |
| 20260502151608 | 53 | 175 | 0.0 | 1.0 | 0.00 | 0.00 | 0.00 | 87 | 1017.2 |
| 20260502150607 | 52 | 0.0 | 0.0 | 0.00 | 0.00 | 0.00 | 88 | 1017.1 | |
| 20260502130546 | 50 | 0.0 | 0.0 | 0.00 | 0.00 | 0.00 | 87 | 1016.9 | |
| 20260502123601 | 50 | 0.0 | 0.0 | 0.00 | 0.00 | 0.00 | 87 | 1017.2 | |
| 20260502122540 | 50 | 0.0 | 0.0 | 0.00 | 0.00 | 0.00 | 87 | 1017.0 | |
| 20260502121537 | 50 | 0.0 | 0.0 | 0.00 | 0.00 | 0.00 | 87 | 1017.0 | |
| 20260502120536 | 50 | 0.0 | 0.0 | 0.00 | 0.00 | 0.00 | 87 | 1017.0 | |
| 20260502115538 | 50 | 180 | 0.0 | 1.0 | 0.00 | 0.00 | 0.00 | 87 | 1017.3 |
| 20260502114532 | 50 | 0.0 | 0.0 | 0.00 | 0.00 | 0.00 | 86 | 1017.3 | |
| 20260502113551 | 50 | 0.0 | 0.0 | 0.00 | 0.00 | 0.00 | 87 | 1017.3 | |
| 20260502112529 | 50 | 277 | 1.0 | 2.0 | 0.00 | 0.00 | 0.00 | 88 | 1016.9 |
| 20260502111527 | 50 | 172 | 1.0 | 3.0 | 0.00 | 0.00 | 0.00 | 87 | 1017.2 |
| 20260502110545 | 50 | 274 | 0.0 | 2.0 | 0.00 | 0.00 | 0.00 | 87 | 1017.1 |
| 20260502105523 | 50 | 237 | 1.0 | 3.0 | 0.00 | 0.00 | 0.00 | 86 | 1017.4 |
| 20260502104521 | 50 | 246 | 2.0 | 4.0 | 0.00 | 0.00 | 0.00 | 86 | 1017.5 |
| 20260502103520 | 50 | 233 | 2.0 | 4.0 | 0.00 | 0.00 | 0.00 | 86 | 1017.7 |
| 20260502102518 | 50 | 226 | 2.0 | 4.0 | 0.00 | 0.00 | 0.00 | 85 | 1017.7 |
| 20260502101517 | 50 | 229 | 1.0 | 3.0 | 0.00 | 0.00 | 0.00 | 84 | 1017.5 |
| 20260502100618 | 50 | 260 | 0.0 | 1.0 | 0.00 | 0.00 | 0.00 | 84 | 1016.9 |
| 20260502090645 | 52 | 275 | 0.0 | 2.0 | 0.00 | 0.00 | 0.00 | 83 | 1016.8 |
| 20260502070605 | 54 | 255 | 1.0 | 2.0 | 0.00 | 0.00 | 0.00 | 76 | 1016.9 |
| 20260502065542 | 55 | 246 | 2.0 | 4.0 | 0.00 | 0.00 | 0.00 | 76 | 1016.7 |
| 20260502064540 | 55 | 241 | 3.0 | 4.0 | 0.00 | 0.00 | 0.00 | 75 | 1016.8 |
| 20260502063619 | 56 | 235 | 2.0 | 3.0 | 0.00 | 0.00 | 0.00 | 74 | 1016.8 |
| 20260502062557 | 56 | 236 | 4.0 | 6.0 | 0.00 | 0.00 | 0.00 | 73 | 1016.7 |
| 20260502061536 | 57 | 230 | 3.0 | 7.0 | 0.00 | 0.00 | 0.00 | 73 | 1016.7 |
| 20260502060534 | 57 | 242 | 3.0 | 6.0 | 0.00 | 0.00 | 0.00 | 73 | 1016.5 |
| 20260502055532 | 58 | 230 | 3.0 | 7.0 | 0.00 | 0.00 | 0.00 | 72 | 1016.4 |
| 20260502054530 | 59 | 244 | 4.0 | 10.0 | 0.00 | 0.00 | 0.00 | 70 | 1016.4 |
| 20260502053529 | 59 | 234 | 3.0 | 10.0 | 0.00 | 0.00 | 0.00 | 68 | 1016.4 |
| 20260502052530 | 60 | 246 | 3.0 | 6.0 | 0.00 | 0.00 | 0.00 | 67 | 1016.2 |
| 20260502051525 | 61 | 244 | 1.0 | 4.0 | 0.00 | 0.00 | 0.00 | 64 | 1016.1 |
| 20260502050523 | 61 | 0.0 | 0.0 | 0.00 | 0.00 | 0.00 | 63 | 1016.1 | |
| 20260502045522 | 61 | 266 | 1.0 | 3.0 | 0.00 | 0.00 | 0.00 | 63 | 1016.1 |
| 20260502044520 | 62 | 268 | 1.0 | 3.0 | 0.00 | 0.00 | 0.00 | 61 | 1015.8 |
| 20260502043518 | 62 | 245 | 2.0 | 6.0 | 0.00 | 0.00 | 0.00 | 60 | 1015.8 |
| 20260502042537 | 62 | 281 | 0.0 | 1.0 | 0.00 | 0.00 | 0.00 | 60 | 1015.6 |
| 20260502041615 | 62 | 283 | 0.0 | 1.0 | 0.00 | 0.00 | 0.00 | 60 | 1015.6 |
| 20260502040613 | 62 | 274 | 0.0 | 1.0 | 0.00 | 0.00 | 0.00 | 60 | 1015.5 |
| 20260502035631 | 62 | 311 | 0.0 | 1.0 | 0.00 | 0.00 | 0.00 | 60 | 1015.4 |
| 20260502034610 | 62 | 347 | 1.0 | 3.0 | 0.00 | 0.00 | 0.00 | 60 | 1015.2 |
| 20260502033608 | 62 | 297 | 0.0 | 1.0 | 0.00 | 0.00 | 0.00 | 60 | 1015.2 |
| 20260502032607 | 63 | 331 | 2.0 | 7.0 | 0.00 | 0.00 | 0.00 | 59 | 1015.1 |
| 20260502031625 | 63 | 342 | 1.0 | 3.0 | 0.00 | 0.00 | 0.00 | 59 | 1015.0 |
| 20260502030603 | 64 | 316 | 1.0 | 4.0 | 0.00 | 0.00 | 0.00 | 58 | 1014.8 |
| 20260502025622 | 64 | 328 | 1.0 | 4.0 | 0.00 | 0.00 | 0.00 | 56 | 1014.7 |